BEIDOU IGSO-7 (43539 NORAD) Tracking and Keplerian Element Data

This shows tracking and keplerian element data for the satellite.

Feedback or suggestion? Click here.




ElementValue
Catalog43539
NameBEIDOU IGSO-7
Epoch Orbit37
Epoch Day219.58230822
Epoch Year2018
RAAN188.5499
Inclination55.0474
Eccentricity0.0021937
Argument of Perigee182.5434
Mean Anonmoly266.2339
Mean Motion1.00281472
Decay Rate-1E-06
L11 43539U 18057A 18219.58230822 -.00000100 00000-0 00000-0 0 9998
L22 43539 55.0474 188.5499 0021937 182.5434 266.2339 1.00281472 370

Live tracking and technical data element details for BEIDOU IGSO-7 (NORAD 43539). BEIDOU IGSO-7 can be tracked NOW for your location showing map with azimuth and elevation plus other details from your city location.

Track the satellite on the map from your city or location and see movement details for azimuth, elevation, latitude, longitude, range, height, and movement on the map or in text.







IsCatalogInMostPopularTable: catalog: 43539, numindb: 59
Update: records affected: 1



GetName: 43539 BEIDOU IGSO-7

Hit Count: updated at: Tue, 20 Nov 2018 08:35:08 GMT